Time,TemperatureF,DewpointF,PressureIn,WindDirection,WindDirectionDegrees,WindSpeedMPH,WindSpeedGustMPH,Humidity,HourlyPrecipIn,Conditions,Clouds,dailyrainin,SoftwareType,DateUTC
2014-12-19 00:04:00,35.3,27.5,30.12,North,0,0.0,0.0,73,0.00,,,0.00,WUHU216HW,2014-12-19 08:04:00,
2014-12-19 00:09:00,35.1,27.5,30.11,North,0,0.0,0.0,74,0.00,,,0.00,WUHU216HW,2014-12-19 08:09:00,
2014-12-19 00:14:00,34.9,27.7,30.12,North,0,0.0,0.0,75,0.00,,,0.00,WUHU216HW,2014-12-19 08:14:00,
2014-12-19 00:19:00,34.9,28.1,30.12,North,0,0.0,0.0,76,0.00,,,0.00,WUHU216HW,2014-12-19 08:19:00,
2014-12-19 00:24:00,34.9,27.7,30.12,North,0,0.0,0.0,75,0.00,,,0.00,WUHU216HW,2014-12-19 08:24:00,
2014-12-19 00:29:00,35.1,28.3,30.12,North,0,0.0,0.0,76,0.00,,,0.00,WUHU216HW,2014-12-19 08:29:00,
2014-12-19 00:34:00,35.3,28.1,30.12,North,0,0.0,0.0,75,0.00,,,0.00,WUHU216HW,2014-12-19 08:34:00,
2014-12-19 00:39:00,35.5,28.3,30.11,North,0,0.0,0.0,75,0.00,,,0.00,WUHU216HW,2014-12-19 08:39:00,
2014-12-19 00:44:00,35.5,28.3,30.11,North,0,0.0,0.0,75,0.00,,,0.00,WUHU216HW,2014-12-19 08:44:00,
2014-12-19 00:49:00,35.6,28.8,30.11,North,0,0.0,0.0,76,0.00,,,0.00,WUHU216HW,2014-12-19 08:49:00,
2014-12-19 00:54:00,35.6,28.4,30.10,North,0,0.0,0.0,75,0.00,,,0.00,WUHU216HW,2014-12-19 08:54:00,
2014-12-19 00:59:00,36.2,28.4,30.10,North,0,0.0,0.0,73,0.00,,,0.00,WUHU216HW,2014-12-19 08:59:00,
2014-12-19 01:04:00,36.4,28.5,30.10,North,0,0.0,0.0,73,0.00,,,0.00,WUHU216HW,2014-12-19 09:04:00,
2014-12-19 01:09:00,36.4,28.5,30.10,North,0,0.0,0.0,73,0.00,,,0.00,WUHU216HW,2014-12-19 09:09:00,
2014-12-19 01:14:00,36.5,28.1,30.09,North,0,0.0,0.0,71,0.00,,,0.00,WUHU216HW,2014-12-19 09:14:00,
2014-12-19 01:19:00,36.4,28.2,30.10,North,0,0.0,0.0,72,0.00,,,0.00,WUHU216HW,2014-12-19 09:19:00,
2014-12-19 01:24:00,36.4,28.2,30.11,North,0,0.0,0.0,72,0.00,,,0.00,WUHU216HW,2014-12-19 09:24:00,
2014-12-19 01:29:00,36.2,28.4,30.10,North,0,0.0,0.0,73,0.00,,,0.00,WUHU216HW,2014-12-19 09:29:00,
2014-12-19 01:34:00,36.2,28.4,30.11,North,0,0.0,0.0,73,0.00,,,0.00,WUHU216HW,2014-12-19 09:34:00,
2014-12-19 01:39:00,36.4,28.5,30.11,North,0,0.0,0.0,73,0.00,,,0.00,WUHU216HW,2014-12-19 09:39:00,
2014-12-19 01:44:00,36.4,28.5,30.11,North,0,0.0,0.0,73,0.00,,,0.00,WUHU216HW,2014-12-19 09:44:00,
2014-12-19 01:49:00,36.4,28.5,30.11,North,0,0.0,0.0,73,0.00,,,0.00,WUHU216HW,2014-12-19 09:49:00,
2014-12-19 01:54:00,36.2,28.4,30.11,North,0,0.0,0.0,73,0.00,,,0.00,WUHU216HW,2014-12-19 09:54:00,
2014-12-19 01:59:00,35.8,28.0,30.11,North,0,0.0,0.0,73,0.00,,,0.00,WUHU216HW,2014-12-19 09:59:00,
2014-12-19 02:04:00,35.5,27.6,30.11,North,0,0.0,0.0,73,0.00,,,0.00,WUHU216HW,2014-12-19 10:04:00,
2014-12-19 02:09:00,35.3,27.5,30.12,North,0,0.0,0.0,73,0.00,,,0.00,WUHU216HW,2014-12-19 10:09:00,
2014-12-19 02:14:00,34.9,27.1,30.12,North,0,0.0,0.0,73,0.00,,,0.00,WUHU216HW,2014-12-19 10:14:00,
2014-12-19 02:19:00,34.7,26.9,30.13,North,0,0.0,0.0,73,0.00,,,0.00,WUHU216HW,2014-12-19 10:19:00,
2014-12-19 02:24:00,34.6,26.7,30.12,North,0,0.0,0.0,73,0.00,,,0.00,WUHU216HW,2014-12-19 10:24:00,
2014-12-19 02:29:00,34.2,26.6,30.13,North,0,0.0,0.0,74,0.00,,,0.00,WUHU216HW,2014-12-19 10:29:00,
2014-12-19 02:34:00,34.2,26.6,30.13,North,0,0.0,0.0,74,0.00,,,0.00,WUHU216HW,2014-12-19 10:34:00,
2014-12-19 02:39:00,34.2,26.6,30.13,North,0,0.0,0.0,74,0.00,,,0.00,WUHU216HW,2014-12-19 10:39:00,
2014-12-19 02:44:00,34.2,26.6,30.13,North,0,0.0,0.0,74,0.00,,,0.00,WUHU216HW,2014-12-19 10:44:00,
2014-12-19 02:49:00,34.2,26.6,30.12,North,0,0.0,0.0,74,0.00,,,0.00,WUHU216HW,2014-12-19 10:49:00,
2014-12-19 02:54:00,34.0,26.2,30.13,North,0,0.0,0.0,73,0.00,,,0.00,WUHU216HW,2014-12-19 10:54:00,
2014-12-19 02:59:00,34.2,26.4,30.12,North,0,0.0,0.0,73,0.00,,,0.00,WUHU216HW,2014-12-19 10:59:00,
2014-12-19 03:04:00,34.4,26.6,30.11,North,0,0.0,0.0,73,0.00,,,0.00,WUHU216HW,2014-12-19 11:04:00,
2014-12-19 03:09:00,34.6,26.1,30.11,North,0,0.0,0.0,71,0.00,,,0.00,WUHU216HW,2014-12-19 11:09:00,
2014-12-19 03:14:00,34.7,26.3,30.11,North,0,0.0,0.0,71,0.00,,,0.00,WUHU216HW,2014-12-19 11:14:00,
2014-12-19 03:19:00,34.7,26.3,30.11,North,0,0.0,0.0,71,0.00,,,0.00,WUHU216HW,2014-12-19 11:19:00,
2014-12-19 03:24:00,34.6,26.1,30.10,North,0,0.0,0.0,71,0.00,,,0.00,WUHU216HW,2014-12-19 11:24:00,
2014-12-19 03:29:00,34.4,26.2,30.11,North,0,0.0,0.0,72,0.00,,,0.00,WUHU216HW,2014-12-19 11:29:00,
2014-12-19 03:34:00,34.4,26.2,30.11,North,0,0.0,0.0,72,0.00,,,0.00,WUHU216HW,2014-12-19 11:34:00,
2014-12-19 03:39:00,34.4,26.6,30.10,North,0,0.0,0.0,73,0.00,,,0.00,WUHU216HW,2014-12-19 11:39:00,
2014-12-19 03:44:00,34.2,26.0,30.10,North,0,0.0,0.0,72,0.00,,,0.00,WUHU216HW,2014-12-19 11:44:00,
2014-12-19 03:49:00,33.8,26.0,30.10,North,0,0.0,0.0,73,0.00,,,0.00,WUHU216HW,2014-12-19 11:49:00,
2014-12-19 03:54:00,33.7,26.5,30.10,North,0,0.0,0.0,75,0.00,,,0.00,WUHU216HW,2014-12-19 11:54:00,
2014-12-19 03:59:00,33.5,26.0,30.10,North,0,0.0,0.0,74,0.00,,,0.00,WUHU216HW,2014-12-19 11:59:00,
2014-12-19 04:04:00,33.5,26.3,30.10,North,0,0.0,0.0,75,0.00,,,0.00,WUHU216HW,2014-12-19 12:04:00,
2014-12-19 04:09:00,33.3,25.8,30.10,North,0,0.0,0.0,74,0.00,,,0.00,WUHU216HW,2014-12-19 12:09:00,
2014-12-19 04:14:00,33.1,26.3,30.10,North,0,0.0,0.0,76,0.00,,,0.00,WUHU216HW,2014-12-19 12:14:00,
2014-12-19 04:19:00,33.3,26.5,30.10,North,0,0.0,0.0,76,0.00,,,0.00,WUHU216HW,2014-12-19 12:19:00,
2014-12-19 04:24:00,33.3,26.5,30.09,North,0,0.0,0.0,76,0.00,,,0.00,WUHU216HW,2014-12-19 12:24:00,
2014-12-19 04:29:00,33.5,26.3,30.09,North,0,0.0,0.0,75,0.00,,,0.00,WUHU216HW,2014-12-19 12:29:00,
2014-12-19 04:34:00,33.5,26.3,30.09,North,0,0.0,0.0,75,0.00,,,0.00,WUHU216HW,2014-12-19 12:34:00,
2014-12-19 04:38:00,33.3,26.2,30.09,North,0,0.0,0.0,75,0.00,,,0.00,WUHU216HW,2014-12-19 12:38:00,
2014-12-19 04:43:00,33.1,26.0,30.09,North,0,0.0,0.0,75,0.00,,,0.00,WUHU216HW,2014-12-19 12:43:00,
2014-12-19 04:48:00,32.9,25.8,30.09,North,0,0.0,0.0,75,0.00,,,0.00,WUHU216HW,2014-12-19 12:48:00,
2014-12-19 04:53:00,32.8,25.7,30.09,North,0,0.0,0.0,75,0.00,,,0.00,WUHU216HW,2014-12-19 12:53:00,
2014-12-19 04:58:00,32.6,25.5,30.09,North,0,0.0,0.0,75,0.00,,,0.00,WUHU216HW,2014-12-19 12:58:00,
2014-12-19 05:03:00,32.6,25.2,30.09,North,0,0.0,0.0,74,0.00,,,0.00,WUHU216HW,2014-12-19 13:03:00,
2014-12-19 05:08:00,32.6,25.2,30.09,North,0,0.0,0.0,74,0.00,,,0.00,WUHU216HW,2014-12-19 13:08:00,
2014-12-19 05:13:00,32.6,24.8,30.09,North,0,0.0,0.0,73,0.00,,,0.00,WUHU216HW,2014-12-19 13:13:00,
2014-12-19 05:18:00,32.6,24.8,30.09,North,0,0.0,0.0,73,0.00,,,0.00,WUHU216HW,2014-12-19 13:18:00,
2014-12-19 05:23:00,32.4,24.7,30.09,North,0,0.0,0.0,73,0.00,,,0.00,WUHU216HW,2014-12-19 13:23:00,
2014-12-19 05:28:00,32.2,24.2,30.08,North,0,0.0,0.0,72,0.00,,,0.00,WUHU216HW,2014-12-19 13:28:00,
2014-12-19 05:33:00,32.4,24.4,30.08,North,0,0.0,0.0,72,0.00,,,0.00,WUHU216HW,2014-12-19 13:33:00,
2014-12-19 05:38:00,32.6,24.2,30.08,North,0,0.0,0.0,71,0.00,,,0.00,WUHU216HW,2014-12-19 13:38:00,
2014-12-19 05:43:00,32.4,24.0,30.09,North,0,0.0,0.0,71,0.00,,,0.00,WUHU216HW,2014-12-19 13:43:00,
2014-12-19 05:48:00,32.2,23.9,30.09,North,0,0.0,0.0,71,0.00,,,0.00,WUHU216HW,2014-12-19 13:48:00,
2014-12-19 05:53:00,32.2,23.9,30.08,North,0,0.0,0.0,71,0.00,,,0.00,WUHU216HW,2014-12-19 13:53:00,
2014-12-19 05:58:00,32.2,23.9,30.08,North,0,0.0,0.0,71,0.00,,,0.00,WUHU216HW,2014-12-19 13:58:00,
2014-12-19 06:03:00,32.0,23.4,30.08,North,0,0.0,0.0,70,0.00,,,0.00,WUHU216HW,2014-12-19 14:03:00,
2014-12-19 06:08:00,32.2,23.6,30.08,North,0,0.0,0.0,70,0.00,,,0.00,WUHU216HW,2014-12-19 14:08:00,
2014-12-19 06:13:00,32.2,23.6,30.08,North,0,0.0,0.0,70,0.00,,,0.00,WUHU216HW,2014-12-19 14:13:00,
2014-12-19 06:18:00,32.2,23.6,30.08,North,0,0.0,0.0,70,0.00,,,0.00,WUHU216HW,2014-12-19 14:18:00,
2014-12-19 06:23:00,32.4,23.4,30.08,North,0,0.0,0.0,69,0.00,,,0.00,WUHU216HW,2014-12-19 14:23:00,
2014-12-19 06:28:00,33.1,23.3,30.08,North,0,0.0,0.0,67,0.00,,,0.00,WUHU216HW,2014-12-19 14:28:00,
2014-12-19 06:33:00,33.7,24.1,30.09,North,0,0.0,0.0,68,0.00,,,0.00,WUHU216HW,2014-12-19 14:33:00,
2014-12-19 06:38:00,33.5,23.9,30.09,North,0,0.0,0.0,68,0.00,,,0.00,WUHU216HW,2014-12-19 14:38:00,
2014-12-19 06:43:00,33.3,24.2,30.08,North,0,0.0,0.0,69,0.00,,,0.00,WUHU216HW,2014-12-19 14:43:00,
2014-12-19 06:48:00,33.7,24.5,30.08,North,0,0.0,0.0,69,0.00,,,0.00,WUHU216HW,2014-12-19 14:48:00,
2014-12-19 06:53:00,33.7,24.5,30.08,North,0,0.0,0.0,69,0.00,,,0.00,WUHU216HW,2014-12-19 14:53:00,
2014-12-19 06:58:00,33.7,24.1,30.07,North,0,0.0,0.0,68,0.00,,,0.00,WUHU216HW,2014-12-19 14:58:00,
2014-12-19 07:03:00,33.7,24.1,30.08,North,0,0.0,0.0,68,0.00,,,0.00,WUHU216HW,2014-12-19 15:03:00,
2014-12-19 07:08:00,33.5,23.9,30.08,North,0,0.0,0.0,68,0.00,,,0.00,WUHU216HW,2014-12-19 15:08:00,
2014-12-19 07:13:00,33.5,23.9,30.08,North,0,0.0,0.0,68,0.00,,,0.00,WUHU216HW,2014-12-19 15:13:00,
2014-12-19 07:18:00,33.5,24.3,30.08,North,0,0.0,0.0,69,0.00,,,0.00,WUHU216HW,2014-12-19 15:18:00,
2014-12-19 07:23:00,33.7,24.5,30.08,North,0,0.0,0.0,69,0.00,,,0.00,WUHU216HW,2014-12-19 15:23:00,
2014-12-19 07:28:00,34.0,24.5,30.08,North,0,0.0,0.0,68,0.00,,,0.00,WUHU216HW,2014-12-19 15:28:00,
2014-12-19 07:33:00,34.2,24.7,30.08,North,0,0.0,0.0,68,0.00,,,0.00,WUHU216HW,2014-12-19 15:33:00,
2014-12-19 07:38:00,34.2,24.7,30.08,North,0,0.0,0.0,68,0.00,,,0.00,WUHU216HW,2014-12-19 15:38:00,
2014-12-19 07:43:00,34.4,24.8,30.08,North,0,0.0,0.0,68,0.00,,,0.00,WUHU216HW,2014-12-19 15:43:00,
2014-12-19 07:48:00,34.4,24.8,30.08,North,0,0.0,0.0,68,0.00,,,0.00,WUHU216HW,2014-12-19 15:48:00,
2014-12-19 07:53:00,34.7,25.2,30.08,North,0,0.0,0.0,68,0.00,,,0.00,WUHU216HW,2014-12-19 15:53:00,
2014-12-19 07:58:00,34.9,25.4,30.08,North,0,0.0,0.0,68,0.00,,,0.00,WUHU216HW,2014-12-19 15:58:00,
2014-12-19 08:03:00,35.3,25.7,30.08,North,0,0.0,0.0,68,0.00,,,0.00,WUHU216HW,2014-12-19 16:03:00,
2014-12-19 08:08:00,35.6,25.4,30.09,North,0,0.0,0.0,66,0.00,,,0.00,WUHU216HW,2014-12-19 16:08:00,
2014-12-19 08:13:00,36.0,26.1,30.08,North,0,0.0,0.0,67,0.00,,,0.00,WUHU216HW,2014-12-19 16:13:00,
2014-12-19 08:18:00,36.0,26.1,30.09,North,0,0.0,0.0,67,0.00,,,0.00,WUHU216HW,2014-12-19 16:18:00,
2014-12-19 08:23:00,36.0,26.1,30.09,North,0,0.0,0.0,67,0.00,,,0.00,WUHU216HW,2014-12-19 16:23:00,
2014-12-19 08:28:00,36.2,26.3,30.09,North,0,0.0,0.0,67,0.00,,,0.00,WUHU216HW,2014-12-19 16:28:00,
2014-12-19 08:33:00,36.7,26.8,30.09,North,0,0.0,0.0,67,0.00,,,0.00,WUHU216HW,2014-12-19 16:33:00,
2014-12-19 08:38:00,37.1,27.2,30.10,North,0,0.0,0.0,67,0.00,,,0.00,WUHU216HW,2014-12-19 16:38:00,
2014-12-19 08:43:00,37.8,27.8,30.10,North,0,0.0,0.0,67,0.00,,,0.00,WUHU216HW,2014-12-19 16:43:00,
2014-12-19 08:48:00,37.8,27.8,30.10,North,0,0.0,0.0,67,0.00,,,0.00,WUHU216HW,2014-12-19 16:48:00,
2014-12-19 09:00:00,39.1,28.2,30.10,North,0,0.0,0.0,65,0.00,,,0.00,WUHU216HW,2014-12-19 17:00:00,
2014-12-19 09:05:00,39.4,28.5,30.10,North,0,0.0,0.0,65,0.00,,,0.00,WUHU216HW,2014-12-19 17:05:00,
2014-12-19 09:10:00,39.6,29.1,30.11,North,0,0.0,0.0,66,0.00,,,0.00,WUHU216HW,2014-12-19 17:10:00,
2014-12-19 09:15:00,40.0,29.4,30.10,North,0,0.0,0.0,66,0.00,,,0.00,WUHU216HW,2014-12-19 17:15:00,
2014-12-19 09:20:00,40.1,30.0,30.11,North,0,0.0,0.0,67,0.00,,,0.00,WUHU216HW,2014-12-19 17:20:00,
2014-12-19 09:25:00,40.5,30.3,30.11,North,0,0.0,0.0,67,0.00,,,0.00,WUHU216HW,2014-12-19 17:25:00,
2014-12-19 09:30:00,40.9,30.7,30.11,North,0,0.0,0.0,67,0.00,,,0.00,WUHU216HW,2014-12-19 17:30:00,
2014-12-19 09:35:00,41.4,30.9,30.11,North,0,0.0,0.0,66,0.00,,,0.00,WUHU216HW,2014-12-19 17:35:00,